This is the latest recevied weather packets stored in our database for station/object OE3MNS-12. If no packets are shown the sender has not sent any weather packets the latest 10 day(s).
| Time | Temp. | Humidity | Pressure | Rain* | Wind** | Luminosity | Snow |
|---|---|---|---|---|---|---|---|
| 1778100018 | 18.89° C | 51% | 1005.9 hPa | 0 mm | - | 0 W/m² | - |
| 1778094620 | 20.56° C | 46% | 1004.7 hPa | 0 mm | - | 0 W/m² | - |
| 1778088020 | 23.33° C | 41% | 1003.9 hPa | 0 mm | - | 29 W/m² | - |
| 1778076617 | 27.78° C | 31% | 1004.3 hPa | 0 mm | - | 358 W/m² | - |
| 1778076022 | 27.22° C | 31% | 1004.3 hPa | 0 mm | - | 334 W/m² | - |
| 1778071221 | 25.56° C | 34% | 1005.6 hPa | 0 mm | - | 240 W/m² | - |
| 1778070620 | 26.11° C | 34% | 1005.8 hPa | 0 mm | - | 255 W/m² | - |
| 1778069419 | 26.11° C | 35% | 1005.9 hPa | 0 mm | - | 868 W/m² | - |
| 1778068220 | 25.56° C | 35% | 1006.1 hPa | 0 mm | - | 364 W/m² | - |
| 1778064622 | 25° C | 38% | 1007 hPa | 0 mm | - | 746 W/m² | - |
| 1778057439 | 22.78° C | 42% | 1008.6 hPa | 0 mm | - | 324 W/m² | - |
| 1778055620 | 22.78° C | 42% | 1008.8 hPa | 0 mm | - | 540 W/m² | - |
| 1778046019 | 16.67° C | 67% | 1009.8 hPa | 0 mm | - | 97 W/m² | - |
| 1778044217 | 16.11° C | 68% | 1009.8 hPa | 0 mm | - | 61 W/m² | - |
| 1778041242 | 15.56° C | 70% | 1009.4 hPa | 0 mm | - | 22 W/m² | - |
| 1778038820 | 15° C | 73% | 1009.1 hPa | 0 mm | - | 5 W/m² | - |
| 1778038220 | 15.56° C | 72% | 1009 hPa | 0 mm | - | 2 W/m² | - |
| 1778037621 | 15.56° C | 72% | 1009 hPa | 0 mm | - | 1 W/m² | - |
| 1778034620 | 15.56° C | 72% | 1009 hPa | 0 mm | - | 0 W/m² | - |
| 1778033420 | 16.11° C | 71% | 1008.9 hPa | 0 mm | - | 0 W/m² | - |
| 1778032822 | 16.11° C | 71% | 1008.9 hPa | 0 mm | - | 0 W/m² | - |
| 1778015420 | 18.33° C | 53% | 1005.7 hPa | 0 mm | - | 0 W/m² | - |
| 1778013041 | 18.33° C | 49% | 1005.2 hPa | 0 mm | - | 0 W/m² | - |
| 1778012418 | 18.89° C | 48% | 1005.1 hPa | 0 mm | - | 0 W/m² | - |
| 1778009441 | 19.44° C | 45% | 1004.7 hPa | 0 mm | - | 0 W/m² | - |
* Rain latest hour (hover to see other rain measurements)
** Current wind speed in m/s (hover to see current wind gust speed)